User: anonymous   Login
Location: Unspecified
(0.0000°N, 0.0000°E)
Time: 17:02:00
(UTC+00:00)
Language:

FAISAT - Orbit

View from above orbital plane
View from above orbital plane
View from above satellite
View from above satellite

Ground track
Ground track

The orbit data is extracted from the following two-line orbital elements,

1 23465U 95002C   18174.70141795 +.00000026 +00000-0 +12193-4 0  9999
2 23465 082.9267 016.4227 0036936 338.0918 067.3268 13.71882943172162
Epoch (UTC): 23 June 2018 16:50:02
Eccentricity: 0.0036936
inclination: 82.9267°
perigee height: 965 km
apogee height: 1020 km
right ascension of ascending node: 16.4227°
argument of perigee: 338.0918°
revolutions per day: 13.71882943
mean anomaly at epoch: 67.3268°
orbit number at epoch: 17216

The dashed part of the orbit path shows where the satellite is in the earth's shadow,  

DLR